Sergeant Bluff, IA

6:03 AM CDT on September 30, 2016 (GMT -0500)
Sioux Gateway

Weather History for KSUX - May, 2012

Change the Weather History Date:

Tuesday, May 1, 2012

  Actual Average Record
Temperature  
Mean Temperature 72 °F 56 °F  
Max Temperature 87 °F 68 °F 93 °F (1959)
Min Temperature 56 °F 43 °F 23 °F (1909)
Degree Days  
Heating Degree Days 0 10  
Month to date heating degree days 0 10  
Since 1 July heating degree days 5494 6662  
Cooling Degree Days 7 1  
Month to date cooling degree days 7 1  
Year to date cooling degree days 57 12  
Growing Degree Days 21 (Base 50)    
Moisture  
Dew Point 58 °F    
Average Humidity 71    
Maximum Humidity 94    
Minimum Humidity 39    
Precipitation  
Precipitation 0.51 in 0.11 in 2.19 in (1972)
Month to date precipitation 0.51 0.11  
Year to date precipitation 8.80 6.35  
Snow  
Snow 0.00 in 0.00 in 1.40 in (2013)
Month to date snowfall 0.0 0.0  
Since 1 July snowfall 18.3 34.8  
Snow Depth 0.00 in    
Sea Level Pressure  
Sea Level Pressure 29.65 in    
Wind  
Wind Speed 15 mph (SSE)    
Max Wind Speed 24 mph    
Max Gust Speed 32 mph    
Visibility 8 miles    
Events Rain , Thunderstorm    
T = Trace of Precipitation, MM = Missing Value Source: NWS Daily Summary

Daily Weather History Graph

Daily Weather History Graph

Search for Another Location

Airport or City:

Trip Planner

Search our weather history database for the weather conditions in past years. The results will help you decide how hot, cold, wet, or windy it might be!

Date:

Astronomy

May. 01, 2012 Rise Set
Actual Time 6:19 AM CDT 8:25 PM CDT
Civil Twilight 5:49 AM CDT 8:56 PM CDT
Nautical Twilight 5:11 AM CDT 9:34 PM CDT
Astronomical Twilight 4:30 AM CDT 10:16 PM CDT
Moon 3:25 PM CDT (5/1) 3:24 AM CDT (5/1)
Length of Visible Light 15h 07m
Length of Day
14h 05m
Waxing Gibbous, 74% of the Moon is Illuminated
May 1
Waxing Gibbous
May 5
Full
May 12
Last Quarter
May 20
New
May 28
First Quarter

Hourly Weather History & Observations

Time (CDT) Temp. Heat Index Dew Point Humidity Pressure Visibility Wind Dir Wind Speed Gust Speed Precip Events Conditions
12:52 AM 55.9 °F - 52.0 °F 87% 29.77 in 8.0 mi SE 6.9 mph - N/A   Clear
1:52 AM 57.0 °F - 53.1 °F 87% 29.77 in 8.0 mi SSE 11.5 mph - N/A   Scattered Clouds
2:52 AM 57.0 °F - 53.1 °F 87% 29.76 in 9.0 mi SSE 6.9 mph - N/A   Clear
3:14 AM 57.2 °F - 53.6 °F 88% 29.76 in 9.0 mi SSE 9.2 mph - N/A   Mostly Cloudy
3:52 AM 57.9 °F - 54.0 °F 87% 29.74 in 9.0 mi SSE 10.4 mph - N/A   Overcast
4:33 AM 57.2 °F - 55.4 °F 94% 29.75 in 9.0 mi SSE 12.7 mph - N/A   Overcast
4:52 AM 59.0 °F - 55.0 °F 87% 29.73 in 8.0 mi SSE 13.8 mph - N/A   Overcast
5:28 AM 59.0 °F - 55.4 °F 88% 29.74 in 7.0 mi South 15.0 mph - N/A   Overcast
5:52 AM 59.0 °F - 55.9 °F 90% 29.73 in 7.0 mi South 11.5 mph - N/A   Overcast
6:52 AM 60.1 °F - 57.0 °F 90% 29.71 in 4.0 mi South 16.1 mph - N/A   Overcast
7:52 AM 61.0 °F - 57.9 °F 90% 29.71 in 3.0 mi South 15.0 mph - N/A   Overcast
8:26 AM 62.6 °F - 57.2 °F 82% 29.71 in 7.0 mi South 16.1 mph 21.9 mph N/A   Overcast
8:52 AM 64.4 °F - 57.2 °F 77% 29.70 in 9.0 mi South 15.0 mph - N/A   Mostly Cloudy
9:49 AM 66.2 °F - 59.0 °F 78% 29.70 in 10.0 mi SSW 16.1 mph 23.0 mph N/A   Partly Cloudy
9:52 AM 66.9 °F - 59.0 °F 76% 29.68 in 10.0 mi South 15.0 mph 23.0 mph N/A   Partly Cloudy
10:52 AM 72.0 °F - 60.1 °F 66% 29.66 in 10.0 mi SSE 13.8 mph - N/A   Partly Cloudy
11:52 AM 75.9 °F - 59.0 °F 56% 29.65 in 10.0 mi South 19.6 mph 25.3 mph N/A   Clear
12:52 PM 80.1 °F 81.1 °F 61.0 °F 52% 29.62 in 10.0 mi South 13.8 mph - N/A   Partly Cloudy
1:52 PM 82.9 °F 83.3 °F 61.0 °F 47% 29.58 in 10.0 mi South 21.9 mph 26.5 mph N/A   Partly Cloudy
2:52 PM 86.0 °F 86.1 °F 60.8 °F 43% 29.57 in 10.0 mi South 16.1 mph 28.8 mph N/A   Partly Cloudy
3:52 PM 84.9 °F 84.8 °F 60.1 °F 43% 29.53 in 10.0 mi South 19.6 mph 25.3 mph N/A   Partly Cloudy
4:52 PM 82.9 °F 83.3 °F 61.0 °F 47% 29.53 in 10.0 mi South 20.7 mph 26.5 mph N/A   Partly Cloudy
5:52 PM 84.0 °F 84.4 °F 61.0 °F 46% 29.49 in 10.0 mi South 17.3 mph 26.5 mph N/A   Clear
6:52 PM 82.0 °F 82.7 °F 61.0 °F 49% 29.51 in 10.0 mi South 17.3 mph - N/A   Mostly Cloudy
7:52 PM 81.0 °F 81.7 °F 61.0 °F 50% 29.51 in 10.0 mi South 13.8 mph - N/A   Scattered Clouds
8:52 PM 78.1 °F - 62.1 °F 58% 29.52 in 10.0 mi SSW 15.0 mph - N/A   Scattered Clouds
9:52 PM 75.0 °F - 61.0 °F 62% 29.56 in 10.0 mi NNW 17.3 mph 21.9 mph N/A   Mostly Cloudy
10:10 PM 69.8 °F - 55.4 °F 60% 29.58 in 10.0 mi North 17.3 mph - N/A Thunderstorm Overcast
10:44 PM 62.6 °F - 57.2 °F 82% 29.59 in 2.5 mi NNE 9.2 mph - 0.21 in Rain , Thunderstorm Heavy Thunderstorms and Rain
10:52 PM 62.1 °F - 57.9 °F 86% 29.57 in 3.0 mi NE 10.4 mph - 0.39 in Rain , Thunderstorm Thunderstorms and Rain
11:52 PM 63.0 °F - 61.0 °F 93% 29.55 in 10.0 mi ESE 9.2 mph 18.4 mph 0.12 in Thunderstorm Clear